User: anonymous
Location: Caltech
(34.1382°N, 118.1253°W)
Time: 21:42:14
(UTC-07:00)
Language:

Cosmos 1980 Rocket - Orbit

View from above orbital plane
View from above orbital plane
View from above satellite
View from above satellite

Ground track
Ground track

The orbit data is extracted from the following two-line orbital elements,

1 19650U 88102B   14107.95814789 -.00000187  00000-0 -70855-4 0  2624
2 19650 070.9996 286.1474 0012709 149.5009 005.6230 14.15659555312358
Epoch (UTC): 17 April 2014 22:59:43
Eccentricity: 0.0012709
inclination: 70.9996°
perigee height: 831 km
apogee height: 849 km
right ascension of ascending node: 286.1474°
argument of perigee: 149.5009°
revolutions per day: 14.15659555
mean anomaly at epoch: 5.6230°
orbit number at epoch: 31235

The dashed part of the orbit path shows where the satellite is in the earth's shadow,  

DLR